Hourly Data Report for October 12, 2014

All times are specified in Local Standard Time (LST). Add 1 hour to adjust for Daylight Saving Time where and when it is observed.

FREDERICTON
NEW BRUNSWICK

45°52'08.000" N
66°32'14.000" W
20.70 m
8101505
71700
YFC

Download Data

Hourly Data (October 2014)
Hourly Data Report for October 12, 2014
Temp Definition
°C
Dew Point Temp Definition
°C
Rel Hum Definition
%
Wind Dir Definition
10's deg

Wind Spd Definition
km/h
Visibility Definition
km
Stn Press Definition
kPa
Hmdx Definition


Wind Chill Definition


Weather Definition


TIME
00:00 Legend Double Dagger 1.4 1.4 100 19 5 16.1 101.42     LegendNANA
01:00 Legend Double Dagger 0.5 0.5 100 19 8 12.9 101.44     LegendNANA
02:00 Legend Double Dagger 0.2 0.2 100 18 5 16.1 101.45     LegendNANA
03:00 Legend Double Dagger -0.5 -0.5 100 19 4 16.1 101.42   -2 LegendNANA
04:00 Legend Double Dagger -1.1 -1.1 100   0 16.1 101.46     LegendNANA
05:00 Legend Double Dagger -0.7 -0.7 100 18 5 16.1 101.52   -2 LegendNANA
06:00 Legend Double Dagger -0.7 -0.7 100 21 8 16.1 101.59   -4 LegendNANA
07:00 Legend Double Dagger -2.0 -2.0 100 22 9 16.1 101.65   -5 LegendNANA
08:00 Legend Double Dagger 1.3 1.0 98 23 8 16.1 101.74     LegendNANA
09:00 Legend Double Dagger 6.3 3.5 82 32 8 16.1 101.77     LegendNANA
10:00 Legend Double Dagger 8.6 3.0 68 30 8 16.1 101.81     LegendNANA
11:00 Legend Double Dagger 10.3 3.3 62 33 15 16.1 101.82     LegendNANA
12:00 Legend Double Dagger 12.3 1.1 46 33 18 16.1 101.79     LegendNANA
13:00 Legend Double Dagger 13.3 0.7 42 32 18 16.1 101.78     LegendNANA
14:00 Legend Double Dagger 13.8 0.8 41 29 17 16.1 101.77     LegendNANA
15:00 Legend Double Dagger 13.8 1.0 41 30 21 16.1 101.79     LegendNANA
16:00 Legend Double Dagger 13.4 0.9 42 30 22 16.1 101.83     LegendNANA
17:00 Legend Double Dagger 12.3 0.8 45 27 13 16.1 101.88     LegendNANA
18:00 Legend Double Dagger 10.3 1.3 54 27 9 16.1 101.95     LegendNANA
19:00 Legend Double Dagger 6.9 2.0 71 25 8 16.1 102.01     LegendNANA
20:00 Legend Double Dagger 3.6 2.0 89 20 4 16.1 102.03     LegendNANA
21:00 Legend Double Dagger 3.5 1.7 88 20 9 16.1 102.10     LegendNANA
22:00 Legend Double Dagger 2.8 1.3 90 23 9 16.1 102.13     LegendNANA
23:00 Legend Double Dagger 1.8 1.0 94 19 4 16.1 102.16     LegendNANA

Notes on Data Quality.

Legend

  • E = Estimated
  • M = Missing
  • NA = Not Available
  • ‡ = Partner data that is not subject to review by the National Climate Archives
Date modified: